Location: Bessat
(45.8735°N, 1.9924°E)
Time: 18:14:28
(UTC+00:00)

IGS 5A - Pass Details

Date: 11 May 2021
Orbit: 583 x 588 km, 97.6° (Epoch: 06 May)

Event Time Altitude Azimuth Distance (km) Brightness Sun altitude
Exits shadow 20:24:31 12° 162° (SSE) 1,779 5.4 -11.2°
Maximum altitude 20:28:21 80° 77° (ENE) 599 3.4 -11.7°
Drops below altitude 10° 20:32:31 10° 349° (N) 1,916 6.9 -12.2°
Sets 20:34:41 0° 349° (N) 2,822 7.9 -12.5°
